Tracking 33188 objects as of 10-Feb-2026
HD Live streaming from Space Station
objects crossing your sky now

FALCON HEAVY DEB

Track FALCON HEAVY DEB now!


NORAD ID: 54222
Int'l Code: 2022-144D
Perigee: 36,171.6 km
Apogee: 36,220.7 km
Inclination: 5.4 °
Period: 1,456.7 minutes
Semi major axis: 42567 km
RCS: Unknown
Launch date: November 1, 2022
Source: United States (US)
Launch site: AIR FORCE EASTERN TEST RANGE (AFETR)

Note: This is SATELLITE DEBRIS
Your satellite tracking list
Your tracking list is empty




NASA's NSSDC Master Catalog

Two Line Element Set (TLE):
1 54222U 22144D   26040.99895320 -.00000076  00000-0  00000+0 0  9998
2 54222   5.3815  64.1876 0005768 230.1233 129.9366  0.98853363 10395
Source of the keplerian elements: AFSPC